Regional Weather Roundup
Issued by NWS

Home | Current Version | Previous Version | Graphics & Text | Print | Product List | Glossary On
Versions: 1 2 3 4 5 6 7 8 9 10 11 12 13 14 15 16 17 18 19 20 21 22 23 24 25 26 27 28 29 30 31 32 33 34 35 36 37 38 39 40 41 42 43 44 45 46 47 48 49 50
000
ASUS44 KMEG 251600
RWRTN
TENNESSEE HOURLY STATE WEATHER ROUNDUP
NATIONAL WEATHER SERVICE MEMPHIS TN
1100 AM CDT TUE APR 25 2017

TNZ002-004-019-021-049-052-054-088>092-251700-
WEST TENNESSEE

CITY           SKY/WX    TMP DP  RH WIND       PRES   REMARKS
MEMPHIS INTL   SUNNY     73  52  47 S12       29.75S
NWS MEMPHIS      N/A     73 N/A N/A MISG        N/A
JACKSON        SUNNY     73  55  53 SW9       29.76F
DYERSBURG      SUNNY     72  55  55 S8G16     29.75F
PARIS          SUNNY     70  55  60 SW5       29.77S
$$

TNZ008-025-027-028-033-062-065-066-251700-
NORTH MIDDLE TENNESSEE

CITY           SKY/WX    TMP DP  RH WIND       PRES   REMARKS
NASHVILLE      MOSUNNY   67  57  70 CALM      29.80S
CLARKSVILLE    SUNNY     68  54  60 S7        29.78S
SMYRNA         MOSUNNY   67  57  70 CALM      29.81F
CROSSVILLE     PTSUNNY   64  52  64 N7        29.82S
$$

TNZ061-075-076-078-094-096-097-251700-
SOUTH MIDDLE TENNESSEE

CITY           SKY/WX    TMP DP  RH WIND       PRES   REMARKS
SHELBYVILLE    SUNNY     70  59  68 CALM      29.82S
$$

TNZ017-018-042-046-047-251700-
NORTHEAST TENNESSEE

CITY           SKY/WX    TMP DP  RH WIND       PRES   REMARKS
TRI CITIES     CLOUDY    60  54  80 SW7       29.80R
$$

TNZ012-013-036-069-073-074-251700-
CENTRAL EAST TENNESSEE

CITY           SKY/WX    TMP DP  RH WIND       PRES   REMARKS
KNOXVILLE      CLOUDY    62  52  69 E3        29.80S
OAK RIDGE      CLOUDY    63  53  70 E5        29.82S
GATLINBURG     CLOUDY    64  52  63 NW5       29.80S
$$

TNZ083-085-099-251700-
SOUTHEAST TENNESSEE

CITY           SKY/WX    TMP DP  RH WIND       PRES   REMARKS
CHATTANOOGA    PTSUNNY   70  55  59 NW8       29.81S
$$

SKY/WX REPORTED AS FAIR MEANS FEW OR NO CLOUDS BELOW
12 THOUSAND FEET.





USA.gov is the U.S. government's official web portal to all federal, state and local government web resources and services.